Home   Weather   Osnabrück   Past weeks

Flag for Germany Past Weather in Osnabrück, Lower Saxony, Germany — Yesterday and Last 2 Weeks

Now
57 °F

Fog.


Feels Like: 57 °F
Forecast: 62 / 79 °F
Wind: 1 mph from North

Location: Muenster / Osnabrueck

Current Time: Jul 21, 2017 at 5:00:53 am

Latest Report: Jul 21, 2017 at 4:20 am


Visibility: N/A

Pressure: 29.95 "Hg

Humidity: 94%

Dew Point: 55 °F

Location of OsnabrückLocation

Past Weather in Osnabrück — Graph

°F

Osnabrück Temperature Yesterday

Maximum temperature yesterday: 79 °F (at 5:57 pm)
Minimum temperature yesterday: 64 °F (at 3:20 am)
Average temperature yesterday: 69 °F

High & Low Weather Summary for the Past Weeks

 TemperatureHumidityPressure
High90 °F (Jul 19, 3:20 pm)100% (Jul 7, 4:50 am)30.21 "Hg (Jul 7, 4:50 am)
Low46 °F (Jul 13, 3:50 am)38% (Jul 19, 5:20 pm)29.71 "Hg (Jul 10, 4:20 pm)
Average66 °F74%29.98 "Hg
* Reported Jul 6 3:20 am — Jul 21 3:50 am, Osnabrück. Weather by CustomWeather, © 2017

Note: Actual official high and low records may vary slightly from our data, if they occured in-between our weather recording intervals... More about our weather records

Advertising

Osnabrück Weather History for the Previous 24 Hours

Scroll right to see more
 ConditionsComfort  
Time TempWeatherWind HumidityBarometerVisibility
3:50 am
Fri, Jul 21
59 °FPassing clouds.3 mph88%29.92 "HgN/A
3:20 am59 °FPassing clouds.3 mph88%29.92 "HgN/A
2:50 am59 °FPassing clouds.5 mph88%29.92 "HgN/A
2:20 am63 °FPassing clouds.7 mph77%29.92 "HgN/A
1:50 am63 °FPassing clouds.6 mph77%29.92 "HgN/A
1:20 am64 °FPassing clouds.7 mph73%29.92 "HgN/A
12:50 am64 °FPassing clouds.8 mph73%29.92 "HgN/A
12:20 am64 °FPartly cloudy.10 mph73%29.92 "HgN/A
11:50 pm
Thu, Jul 20
66 °FPassing clouds.10 mph68%29.89 "HgN/A
11:20 pm66 °FPassing clouds.9 mph68%29.89 "HgN/A
10:50 pm66 °FPassing clouds.12 mph68%29.89 "HgN/A
10:20 pm66 °FPassing clouds.15 mph64%29.89 "HgN/A
9:50 pm68 °FScattered showers. Partly cloudy.18 mph64%29.86 "HgN/A
9:23 pm73 °FScattered showers. Broken clouds.23 mph57%29.83 "HgN/A
8:50 pm75 °FPassing clouds.12 mph54%29.80 "HgN/A
7:50 pm77 °FSunny.13 mph47%29.77 "Hg10 mi
7:20 pm77 °FSunny.13 mph47%29.77 "Hg10 mi
6:50 pm77 °FPassing clouds.14 mph47%29.77 "HgN/A
6:20 pm77 °FSunny.12 mph51%29.77 "Hg10 mi
5:57 pm79 °FPassing clouds.16 mph48%29.77 "HgN/A
5:20 pm77 °FScattered clouds.16 mph51%29.77 "HgN/A
4:50 pm75 °FScattered clouds.8 mph65%29.77 "HgN/A
4:20 pm73 °FScattered clouds.6 mph74%29.77 "HgN/A
3:50 pm70 °FThundershowers. Scattered clouds.5 mph78%29.77 "HgN/A
3:35 pm64 °FRain showers. Broken clouds.9 mph88%29.77 "HgN/A
2:50 pm77 °FScattered clouds.12 mph65%29.74 "HgN/A
1:50 pm75 °FBroken clouds.9 mph74%29.77 "HgN/A
1:20 pm73 °FBroken clouds.10 mph74%29.77 "HgN/A
12:50 pm73 °FBroken clouds.9 mph78%29.77 "HgN/A
12:28 pm72 °FBroken clouds.9 mph83%29.77 "HgN/A
12:20 pm72 °FPartly sunny.10 mph83%29.77 "HgN/A
11:50 am70 °FPartly sunny.9 mph88%29.77 "HgN/A
11:20 am68 °FPartly sunny.5 mph94%29.77 "HgN/A
10:50 am68 °FScattered showers. More clouds than sun.6 mph88%29.77 "HgN/A
10:20 am68 °FBroken clouds.6 mph88%29.77 "HgN/A
9:50 am66 °FLight rain. More clouds than sun.6 mph94%29.77 "HgN/A
9:20 am66 °FLight rain. More clouds than sun.6 mph94%29.77 "HgN/A
8:59 am66 °FLight rain. Partly sunny.6 mph94%29.77 "HgN/A
8:20 am64 °FRain. Overcast.7 mph100%29.80 "Hg3 mi
7:50 am66 °FRain showers. More clouds than sun.9 mph94%29.80 "Hg3 mi
7:20 am64 °FSprinkles. Low clouds.7 mph100%29.77 "Hg5 mi
6:50 am66 °FMild.8 mph88%29.77 "HgN/A
6:20 am64 °FBroken clouds.3 mph94%29.74 "HgN/A
5:50 am64 °FSprinkles. Broken clouds.3 mph94%29.74 "HgN/A
5:20 am64 °FPartly cloudy.3 mph94%29.74 "HgN/A
Weather by CustomWeather, © 2017

See weather overviewHow to use our weather pages